Flag for U.S.A. Weather past 2 weeks in Kansas City, Missouri, U.S.A.

Now
71 °F

Fog.


Feels Like: 69 °F
Forecast: 69 / 86 °F
Wind: 8 mph from Southwest

Location: Kansas City Downtown Airport

Current Time: Sep 20, 2014 at 3:01:07 AM

Latest Report: Sep 20, 2014 at 1:54 AM


Visibility: 6 mi

Pressure: 29.91 "Hg

Humidity: 87%

Dew point: 67 °F

Location of Kansas CityLocation

Historic Weather in Kansas City — Graph

°F

Kansas City temperature yesterday

Maximum temperature yesterday: 80 °F (at 5:54 PM)
Minimum temperature yesterday: 62 °F (at 12:54 AM)
Average temperature yesterday: 70 °F

Past Weeks' High & Low Weather Summary

 TemperatureHumidityPressure
High92 °F (Sep 9, 2:54 PM)97% (Sep 13, 7:54 AM)30.42 "Hg (Sep 13, 7:54 AM)
Low41 °F (Sep 13, 6:58 AM)40% (Sep 7, 5:54 PM)29.54 "Hg (Sep 9, 11:54 PM)
Average66 °F73%30.06 "Hg
* Reported Sep 5 1:54 AM — Sep 20 1:54 AM, Kansas City, Weather by CustomWeather, © 2014

Note: Actual official high and low records may vary slightly from our data, if they occured in-between our weather recording intervals... More about our weather records

Advertising

Kansas City weather history for previous 24 hours

 ConditionsComfort  
Time TempWeatherWind HumidityBarometerVisibility
1:54 AM
Sep 20
71 °FFog.8 mph87%29.91 "Hg6 mi
12:54 AM71 °FClear.9 mph84%29.92 "Hg7 mi
11:54 PM
Sep 19
71 °FClear.8 mph84%29.92 "Hg8 mi
10:54 PM72 °FClear.7 mph84%29.93 "Hg9 mi
9:54 PM73 °FClear.7 mph84%29.93 "Hg10 mi
8:54 PM74 °FClear.7 mph82%29.91 "Hg10 mi
7:54 PM76 °FSunny.7 mph74%29.90 "Hg10 mi
6:54 PM79 °FSunny.7 mph67%29.90 "Hg10 mi
5:54 PM80 °FPassing clouds.7 mph67%29.91 "Hg10 mi
4:54 PM79 °FScattered clouds.13 mph69%29.92 "Hg9 mi
3:54 PM79 °FOvercast.9 mph69%29.93 "Hg8 mi
2:54 PM77 °FPartly sunny.8 mph71%29.95 "Hg7 mi
1:54 PM74 °FOvercast.8 mph76%29.98 "Hg6 mi
12:54 PM70 °FOvercast.6 mph84%30.00 "Hg5 mi
11:54 AM69 °FLow clouds.7 mph84%30.00 "Hg5 mi
10:54 AM67 °FFog.8 mph87%30.01 "Hg5 mi
9:54 AM66 °FFog.8 mph90%30.02 "Hg4 mi
8:54 AM65 °FFog.7 mph91%30.02 "Hg4 mi
7:54 AM64 °FFog.6 mph90%30.01 "Hg6 mi
6:54 AM64 °FLow clouds.6 mph90%30.00 "Hg9 mi
5:54 AM64 °FLow clouds.7 mph90%30.00 "Hg9 mi
4:54 AM64 °FLow clouds.8 mph90%29.99 "Hg8 mi
3:54 AM64 °FLow clouds.6 mph90%29.99 "Hg8 mi
Weather by CustomWeather, © 2014

See weather overviewHow to use our weather pages